GW3516 Weather Reports


time (UTC)temp
C
wind
direction
speed
KPH
gust
KPH
rain 1hr
cm
rain 24hr
cm
rain mn
cm
humidity
%
barometer
mb
20260505035557 11 338 16.1 25.7 0.00 0.00 0.00 36 1013.9
20260505034516 11 0 12.9 22.5 0.00 0.00 0.00 36 1013.6
20260505033537 11 0 14.5 29.0 0.00 0.00 0.00 35 1012.9
20260505032517 11 0 12.9 25.7 0.00 0.00 0.00 35 1012.8
20260505031537 12 0 17.7 37.0 0.00 0.00 0.00 34 1012.5
20260505030517 12 0 14.5 25.7 0.00 0.00 0.00 33 1012.5
20260505025517 12 0 16.1 30.6 0.00 0.00 0.00 32 1012.3
20260505024537 13 0 17.7 29.0 0.00 0.00 0.00 31 1011.9
20260505023557 13 0 16.1 33.8 0.00 0.00 0.00 30 1011.0
20260505022617 13 0 16.1 29.0 0.00 0.00 0.00 29 1010.6
20260505021517 14 23 16.1 27.4 0.00 0.00 0.00 27 1010.5
20260505020517 15 0 11.3 24.1 0.00 0.00 0.00 26 1010.4
20260505015517 16 0 8.0 22.5 0.00 0.00 0.00 24 1010.3
20260505014557 16 23 6.4 19.3 0.00 0.00 0.00 21 1009.4
20260505013517 16 338 11.3 22.5 0.00 0.00 0.00 19 1008.9
20260505012517 17 0 6.4 12.9 0.00 0.00 0.00 18 1008.9
20260505011517 17 23 8.0 20.9 0.00 0.00 0.00 16 1008.9
20260505010537 17 0 11.3 19.3 0.00 0.00 0.00 15 1008.9
20260505005557 17 0 12.9 24.1 0.00 0.00 0.00 14 1008.9
20260505004537 18 338 12.9 22.5 0.00 0.00 0.00 15 1009.4
20260505003537 18 338 14.5 25.7 0.00 0.00 0.00 14 1009.1
20260505002517 19 23 9.7 22.5 0.00 0.00 0.00 16 1009.2
20260505001536 19 23 12.9 27.4 0.00 0.00 0.00 16 1009.2
20260505000517 19 338 11.3 22.5 0.00 0.00 0.00 17 1009.1
20260504235517 20 0 11.3 24.1 0.00 0.00 0.00 16 1009.5
20260504234517 20 338 16.1 27.4 0.00 0.00 0.00 16 1009.5
20260504233637 19 23 9.7 19.3 0.00 0.00 0.00 18 1009.4
20260504232517 19 0 11.3 29.0 0.00 0.00 0.00 18 1009.4
20260504231516 21 338 16.1 25.7 0.00 0.00 0.00 15 1010.0
20260504230537 20 0 9.7 27.4 0.00 0.00 0.00 17 1009.6
20260504225617 20 315 8.0 24.1 0.00 0.00 0.00 18 1009.5
20260504224517 19 0 14.5 25.7 0.00 0.00 0.00 18 1009.5
20260504223516 20 315 12.9 22.5 0.00 0.00 0.00 15 1009.6
20260504222556 20 315 12.9 20.9 0.00 0.00 0.00 20 1010.1
20260504221516 20 293 14.5 24.1 0.00 0.00 0.00 17 1010.0
20260504220536 20 270 6.4 12.9 0.00 0.00 0.00 21 1010.2
20260504215636 19 0 14.5 29.0 0.00 0.00 0.00 17 1009.9
20260504213516 18 315 6.4 16.1 0.00 0.00 0.00 19 1010.1
20260504212617 19 0 8.0 17.7 0.00 0.00 0.00 19 1010.5
20260504211538 18 338 8.0 14.5 0.00 0.00 0.00 20 1010.6
20260504210518 19 338 4.8 11.3 0.00 0.00 0.00 18 1010.6
20260504205518 20 45 6.4 14.5 0.00 0.00 0.00 18 1011.0
20260504204518 21 248 9.7 32.2 0.00 0.00 0.00 18 1011.4
20260504203538 21 270 9.7 24.1 0.00 0.00 0.00 19 1011.4
20260504202558 20 293 11.3 20.9 0.00 0.00 0.00 20 1011.5
20260504201538 19 293 8.0 14.5 0.00 0.00 0.00 20 1011.2
20260504200518 18 315 4.8 9.7 0.00 0.00 0.00 20 1011.2
20260504195536 18 338 11.3 19.3 0.00 0.00 0.00 23 1011.5
20260504194518 18 68 12.9 19.3 0.00 0.00 0.00 21 1011.8
20260504193518 18 0 9.7 20.9 0.00 0.00 0.00 19 1011.8
20260504192537 18 293 12.9 27.4 0.00 0.00 0.00 24 1012.0
20260504191518 18 45 8.0 16.1 0.00 0.00 0.00 22 1012.4
20260504190536 19 293 12.9 20.9 0.00 0.00 0.00 20 1012.8
20260504185536 19 315 8.0 20.9 0.00 0.00 0.00 19 1012.8
20260504184536 19 68 6.4 14.5 0.00 0.00 0.00 20 1012.9
20260504183538 19 338 9.7 17.7 0.00 0.00 0.00 21 1012.8
20260504182518 20 293 11.3 22.5 0.00 0.00 0.00 18 1013.0
20260504181518 20 180 4.8 17.7 0.00 0.00 0.00 20 1013.0
20260504180518 20 293 4.8 16.1 0.00 0.00 0.00 18 1013.1
20260504175518 19 315 6.4 16.1 0.00 0.00 0.00 17 1013.1
20260504174656 19 45 6.4 14.5 0.00 0.00 0.00 21 1013.3
20260504173536 18 0 3.2 8.0 0.00 0.00 0.00 26 1013.0
20260504172516 17 0 3.2 8.0 0.00 0.00 0.00 22 1012.7
20260504171538 17 338 8.0 16.1 0.00 0.00 0.00 23 1012.7
20260504170518 17 338 8.0 16.1 0.00 0.00 0.00 26 1012.8
20260504150517 13 0 8.0 17.7 0.00 0.00 0.00 33 1015.2
20260504140538 7 68 4.8 6.4 0.00 0.00 0.00 56 1014.3
20260504130518 2 68 3.2 8.0 0.00 0.00 0.00 65 1012.9
20260504110658 2 0.0 0.0 0.00 0.00 0.00 61 1013.0
20260504100517 3 338 1.6 8.0 0.00 0.00 0.00 60 1014.1
20260504081617 5 113 4.8 6.4 0.00 0.00 0.00 54 1014.7
20260504080617 5 0.0 0.0 0.00 0.00 0.00 53 1014.8
20260504050637 7 0.0 0.0 0.00 0.00 0.00 47 1015.2
20260504045517 8 0.0 0.0 0.00 0.00 0.00 45 1015.3
20260504044557 8 0.0 0.0 0.00 0.00 0.00 43 1015.3
20260504043617 9 0.0 0.0 0.00 0.00 0.00 42 1015.8
20260504042557 10 0.0 0.0 0.00 0.00 0.00 41 1015.7
20260504041516 10 0.0 1.6 0.00 0.00 0.00 37 1015.7
20260504040537 11 0.0 0.0 0.00 0.00 0.00 38 1016.1